Hamilton, TX

8:15 PM CDT on August 29, 2016 (GMT -0500)
Hamilton Municipal

Weather History for KMNZ - May, 2014

Change the Weather History Date:

Tuesday, May 13, 2014

  Actual Average (KACT) Record (KACT)
Temperature  
Mean Temperature 57 °F 74 °F  
Max Temperature 64 °F 84 °F 96 °F (1925)
Min Temperature 51 °F 63 °F 45 °F (2013)
Degree Days  
Heating Degree Days 8 0  
Month to date heating degree days 4  
Since 1 July heating degree days 2140  
Cooling Degree Days 0 9  
Month to date cooling degree days 96  
Year to date cooling degree days 250  
Growing Degree Days 7 (Base 50)    
Moisture  
Dew Point 47 °F    
Average Humidity 67    
Maximum Humidity 100    
Minimum Humidity 46    
Precipitation  
Precipitation 0.19 in 0.14 in 3.04 in (1957)
Month to date precipitation 1.78  
Year to date precipitation 12.37  
Sea Level Pressure  
Sea Level Pressure 30.17 in    
Wind  
Wind Speed 17 mph (North)    
Max Wind Speed 23 mph    
Max Gust Speed 31 mph    
Visibility 10 miles    
Events Rain , Thunderstorm    
T = Trace of Precipitation, MM = Missing Value Source: NWS Daily Summary

Daily Weather History Graph

Daily Weather History Graph

Search for Another Location

Airport or City:

Trip Planner

Search our weather history database for the weather conditions in past years. The results will help you decide how hot, cold, wet, or windy it might be!

Date:

Astronomy

May. 13, 2014 Rise Set
Actual Time 6:37 AM CDT 8:21 PM CDT
Civil Twilight 6:10 AM CDT 8:47 PM CDT
Nautical Twilight 5:38 AM CDT 9:19 PM CDT
Astronomical Twilight 5:04 AM CDT 9:53 PM CDT
Moon 7:28 PM CDT (5/13) 5:48 AM CDT (5/13)
Length of Visible Light 14h 37m
Length of Day
13h 43m
Waxing Gibbous, 99% of the Moon is Illuminated
May 13
Waxing Gibbous
May 14
Full
May 21
Last Quarter
May 28
New
Jun 5
First Quarter

Hourly Weather History & Observations

Time (CDT) Temp. Dew Point Humidity Pressure Visibility Wind Dir Wind Speed Gust Speed Precip Events Conditions
12:15 AM 59.0 °F 55.8 °F 89% 30.04 in 10.0 mi North 18.4 mph 29.9 mph 0.01 in Rain Light Rain
12:35 AM 59.0 °F 55.8 °F 89% 30.04 in 10.0 mi NNE 17.3 mph 21.9 mph 0.01 in   Mostly Cloudy
12:55 AM 59.4 °F 54.3 °F 83% 30.07 in 10.0 mi NNE 16.1 mph 25.3 mph 0.01 in   Overcast
1:15 AM 59.2 °F 53.8 °F 82% 30.06 in 10.0 mi NNE 20.7 mph 31.1 mph N/A   Overcast
1:35 AM 59.2 °F 53.8 °F 82% 30.07 in 10.0 mi NNE 16.1 mph 31.1 mph N/A   Overcast
1:55 AM 59.0 °F 53.4 °F 82% 30.07 in 10.0 mi NNE 23.0 mph 31.1 mph N/A   Overcast
2:15 AM 58.6 °F 53.1 °F 82% 30.07 in 10.0 mi NNE 18.4 mph 28.8 mph N/A   Overcast
2:35 AM 58.5 °F 52.9 °F 82% 30.07 in 10.0 mi NNE 20.7 mph 29.9 mph N/A   Overcast
2:55 AM 58.3 °F 52.9 °F 82% 30.07 in 10.0 mi North - - N/A Thunderstorm Overcast
3:15 AM 58.1 °F 52.3 °F 81% 30.07 in 10.0 mi NNE 16.1 mph 28.8 mph N/A   Mostly Cloudy
3:35 AM 57.6 °F 51.8 °F 81% 30.08 in 10.0 mi North 15.0 mph - N/A   Mostly Cloudy
3:55 AM 57.2 °F 50.9 °F 79% 30.09 in 10.0 mi North 16.1 mph 19.6 mph N/A   Overcast
4:15 AM 57.2 °F 50.2 °F 77% 30.10 in 10.0 mi North 16.1 mph 23.0 mph N/A   Overcast
4:35 AM 56.3 °F 48.7 °F 76% 30.08 in 10.0 mi North 18.4 mph 27.6 mph N/A   Overcast
4:55 AM 55.9 °F 48.7 °F 77% 30.08 in 10.0 mi North 18.4 mph 23.0 mph N/A   Overcast
5:15 AM 55.6 °F 46.9 °F 73% 30.09 in 10.0 mi North 18.4 mph 24.2 mph N/A   Overcast
5:35 AM 55.6 °F 47.5 °F 74% 30.11 in 10.0 mi North 16.1 mph 21.9 mph N/A   Overcast
5:55 AM 55.4 °F 47.3 °F 74% 30.12 in 10.0 mi North 17.3 mph 23.0 mph N/A   Overcast
6:15 AM 55.0 °F 46.6 °F 73% 30.13 in 10.0 mi North 20.7 mph 25.3 mph N/A   Overcast
6:35 AM 54.9 °F 46.0 °F 72% 30.14 in 10.0 mi North 12.7 mph 17.3 mph N/A   Overcast
6:55 AM 54.5 °F 45.5 °F 72% 30.15 in 10.0 mi North 15.0 mph 18.4 mph N/A   Overcast
8:15 AM 54.1 °F 44.6 °F 70% 30.17 in 10.0 mi North 21.9 mph 27.6 mph N/A   Overcast
8:35 AM 54.1 °F 44.4 °F 70% 30.17 in 10.0 mi North 18.4 mph 27.6 mph N/A   Overcast
8:55 AM 54.0 °F 43.7 °F 68% 30.18 in 10.0 mi North 20.7 mph 26.5 mph N/A   Overcast
9:15 AM 54.1 °F 43.7 °F 68% 30.18 in 10.0 mi North 23.0 mph 27.6 mph N/A   Overcast
10:55 AM 55.9 °F 42.8 °F 61% 30.21 in 10.0 mi North 19.6 mph 27.6 mph N/A   Overcast
11:35 AM 58.1 °F 43.7 °F 59% 30.22 in 10.0 mi NNE 16.1 mph 24.2 mph N/A   Overcast
12:15 PM 60.3 °F 44.1 °F 55% 30.22 in 10.0 mi NNE 16.1 mph 24.2 mph N/A   Overcast
12:35 PM 60.8 °F 43.9 °F 54% 30.22 in 10.0 mi North 17.3 mph 26.5 mph N/A   Overcast
12:55 PM 61.9 °F 45.0 °F 54% 30.21 in 10.0 mi NNE 17.3 mph 28.8 mph N/A   Overcast
1:15 PM 62.6 °F 45.3 °F 53% 30.21 in 10.0 mi North 13.8 mph 20.7 mph N/A   Mostly Cloudy
1:35 PM 63.3 °F 45.7 °F 53% 30.21 in 10.0 mi North 18.4 mph 24.2 mph N/A   Overcast
1:55 PM 63.1 °F 44.6 °F 51% 30.20 in 10.0 mi North 18.4 mph 27.6 mph N/A   Overcast
2:15 PM 63.1 °F 44.1 °F 50% 30.20 in 10.0 mi North 17.3 mph 25.3 mph N/A   Overcast
2:35 PM 62.8 °F 44.4 °F 51% 30.19 in 10.0 mi North 20.7 mph 25.3 mph N/A   Overcast
2:55 PM 63.0 °F 43.7 °F 49% 30.19 in 10.0 mi North 21.9 mph 28.8 mph N/A   Overcast
3:15 PM 63.7 °F 43.7 °F 48% 30.19 in 10.0 mi North 20.7 mph 27.6 mph N/A   Overcast
3:35 PM 63.3 °F 42.8 °F 47% 30.19 in 10.0 mi North 20.7 mph 25.3 mph N/A   Overcast
3:55 PM 63.0 °F 43.2 °F 48% 30.19 in 10.0 mi North 19.6 mph 27.6 mph N/A   Overcast
4:15 PM 62.6 °F 41.9 °F 47% 30.19 in 10.0 mi North 19.6 mph 26.5 mph N/A   Overcast
4:35 PM 61.9 °F 41.7 °F 48% 30.19 in 10.0 mi NNW 17.3 mph 21.9 mph N/A   Overcast
4:55 PM 62.6 °F 41.9 °F 47% 30.20 in 10.0 mi North 18.4 mph 25.3 mph N/A   Overcast
5:15 PM 63.3 °F 42.1 °F 46% 30.17 in 10.0 mi North 18.4 mph 23.0 mph N/A   Mostly Cloudy
5:35 PM 63.0 °F 42.1 °F 46% 30.16 in 10.0 mi NNE 13.8 mph - N/A   Clear
5:55 PM 62.4 °F 43.0 °F 49% 30.18 in 10.0 mi North 17.3 mph 24.2 mph N/A   Scattered Clouds
6:15 PM 61.0 °F 43.0 °F 52% 30.17 in 10.0 mi North 18.4 mph 24.2 mph N/A   Mostly Cloudy
6:35 PM 60.8 °F 43.3 °F 53% 30.15 in 10.0 mi NNE 15.0 mph - N/A   Mostly Cloudy
6:55 PM 61.2 °F 43.9 °F 53% 30.18 in 10.0 mi North 12.7 mph 20.7 mph N/A   Mostly Cloudy
7:15 PM 61.0 °F 42.8 °F 51% 30.18 in 10.0 mi North 12.7 mph 21.9 mph N/A   Scattered Clouds
7:35 PM 60.8 °F 43.7 °F 53% 30.19 in 10.0 mi North 11.5 mph - N/A   Scattered Clouds
7:55 PM 60.8 °F 44.6 °F 55% 30.17 in 10.0 mi North 13.8 mph 20.7 mph N/A   Overcast
8:15 PM 60.3 °F 45.1 °F 57% 30.18 in 10.0 mi North 8.1 mph 17.3 mph N/A   Overcast
8:35 PM 60.3 °F 45.3 °F 58% 30.19 in 10.0 mi NNW 5.8 mph - N/A   Overcast
8:55 PM 58.6 °F 48.0 °F 68% 30.20 in 10.0 mi NNW 6.9 mph - N/A Rain Light Rain
9:15 PM 57.6 °F 49.5 °F 74% 30.22 in 10.0 mi NNW 5.8 mph - N/A Rain Light Rain
9:35 PM 57.4 °F 49.1 °F 74% 30.22 in 10.0 mi NNW 6.9 mph - N/A Rain Light Rain
9:55 PM 56.1 °F 49.1 °F 77% 30.24 in 10.0 mi NNW 11.5 mph - 0.03 in Rain Rain
10:15 PM 55.4 °F 48.7 °F 78% 30.27 in 10.0 mi NW 15.0 mph - 0.01 in Rain Rain
10:35 PM 54.1 °F 48.2 °F 80% 30.29 in 10.0 mi NW 17.3 mph 23.0 mph 0.02 in Rain Rain
10:55 PM 52.9 °F 48.7 °F 86% 30.26 in 10.0 mi North 17.3 mph 23.0 mph 0.04 in Rain Rain
11:15 PM 51.8 °F 51.6 °F 99% 30.28 in 7.0 mi North 18.4 mph 26.5 mph 0.06 in Rain Rain
11:35 PM 51.8 °F 51.8 °F 100% 30.31 in 10.0 mi NNW 13.8 mph - 0.10 in Rain Rain
11:55 PM 52.0 °F 51.6 °F 99% 30.31 in 10.0 mi North 9.2 mph - 0.11 in Rain , Thunderstorm Light Thunderstorms and Rain